Location: �couen
(49.0206°N, 2.3831°E)
Time: 07:20:58
(UTC+00:00)

Cosmos 2098 - Visible Passes

Search period start: 27 May 2022 00:00
Search period end: 06 June 2022 00:00
Orbit: 387 x 1578 km, 82.9° (Epoch: 26 May)

Date Brightness Start Highest point End Pass type
(mag) Time Alt. Az. Time Alt. Az. Time Alt. Az.
27 May 6.9 02:31:24 10° NNE 02:33:51 21° ENE 02:36:11 10° ESE visible
28 May 4.8 02:58:20 10° N 03:01:23 56° E 03:04:20 10° SSE visible
30 May 6.9 02:08:13 10° NNE 02:10:29 19° ENE 02:12:46 10° ESE visible
31 May 5.0 02:35:03 10° N 02:37:59 51° E 02:41:00 10° SSE visible
01 Jun 4.4 03:02:25 10° NNW 03:05:19 49° W 03:08:22 10° S visible
02 Jun 6.9 01:44:54 10° NNE 01:47:05 18° ENE 01:49:21 10° ESE visible
03 Jun 5.1 02:11:38 10° N 02:14:33 48° E 02:17:43 10° SSE visible
04 Jun 4.4 02:38:56 10° NNW 02:41:52 54° W 02:45:09 10° S visible
05 Jun 6.9 01:21:28 10° NNE 01:23:39 18° ENE 01:26:00 10° ESE visible
05 Jun 5.8 03:06:45 10° NW 03:09:08 21° W 03:11:43 10° SW visible
